Location: Dannhausen
(51.8650°N, 10.1026°E)
Time: 18:10:51
(UTC+00:00)

Cosmos 2058 - Pass Details

Date: 09 April 2020
Orbit: 563 x 583 km, 82.5° (Epoch: 04 June)

Event Time Altitude Azimuth Distance (km) Brightness Sun altitude
Rises 19:12:23 0° 355° (N) 2,777 6.9 -10.2°
Reaches altitude 10° 19:14:45 10° 6° (N) 1,877 5.8 -10.5°
Maximum altitude 19:18:30 32° 71° (ENE) 982 3.8 -11.0°
Enters shadow 19:21:09 16° 127° (SE) 1,499 4.4 -11.4°
